Back to catalog

LIMASAT

AliveAmateur RadioVLEO
NORAD 65272·PAYLOAD·🇺🇸 United States

Launched Aug 22, 2025 from Cape Canaveral Space Force Station

Loading…

Next Passes (next 24 hours)

TLE

StaleSource: Mike McCants

Epoch: Sep 8, 2025, 19:27 UTC

1 65272U 25183B   25251.81098455 0.00075783  00000-0  38663-3 0    08
2 65272  49.5221 185.8300 0006423  21.0132 338.9866 15.80547521    07

Track LIMASAT in real time with AllMySat

Download on the App Store